GW4109 Weather Reports


time (UTC)temp
C
wind
direction
speed
KPH
gust
KPH
rain 1hr
cm
rain 24hr
cm
rain mn
cm
humidity
%
barometer
mb
20260902220214 37 308 11.3 20.9 0.00 0.00 0.00 12 1015.2
20260902215710 37 295 9.7 29.0 0.00 0.00 0.00 11 1015.2
20260902215205 37 317 14.5 19.3 0.00 0.00 0.00 12 1015.2
20260902214700 37 283 8.0 22.5 0.00 0.00 0.00 12 1015.3
20260902214159 37 289 12.9 19.3 0.00 0.00 0.00 11 1015.3
20260902213655 37 284 14.5 17.7 0.00 0.00 0.00 12 1015.6
20260902213154 37 310 17.7 25.7 0.00 0.00 0.00 11 1015.3
20260902212649 38 268 9.7 14.5 0.00 0.00 0.00 12 1015.5
20260902212146 37 254 3.2 24.1 0.00 0.00 0.00 12 1015.5
20260902211642 37 247 17.7 27.4 0.00 0.00 0.00 12 1015.6
20260902211137 37 305 12.9 22.5 0.00 0.00 0.00 11 1015.5
20260902210636 37 273 9.7 14.5 0.00 0.00 0.00 11 1015.7
20260902210132 37 333 12.9 22.5 0.00 0.00 0.00 11 1015.7
20260902205630 37 249 14.5 22.5 0.00 0.00 0.00 9 1015.6
20260902205125 37 249 17.7 24.1 0.00 0.00 0.00 11 1015.7
20260902204620 36 254 11.3 27.4 0.00 0.00 0.00 10 1015.7
20260902204115 36 282 11.3 29.0 0.00 0.00 0.00 10 1016.0
20260902203610 37 240 27.4 40.2 0.00 0.00 0.00 9 1015.7
20260902203110 37 248 14.5 17.7 0.00 0.00 0.00 9 1015.9
20260902202605 37 263 9.7 11.3 0.00 0.00 0.00 9 1015.9
20260902202102 37 276 8.0 17.7 0.00 0.00 0.00 9 1016.0
20260902201557 37 266 4.8 25.7 0.00 0.00 0.00 9 1016.0
20260902201056 37 305 4.8 14.5 0.00 0.00 0.00 9 1015.9
20260902200551 36 247 9.7 17.7 0.00 0.00 0.00 9 1016.1
20260902200048 36 266 8.0 29.0 0.00 0.00 0.00 9 1016.3
20260902195543 36 265 11.3 17.7 0.00 0.00 0.00 9 1016.3
20260902195042 36 329 22.5 27.4 0.00 0.00 0.00 9 1016.3
20260902194541 36 301 12.9 20.9 0.00 0.00 0.00 9 1016.2
20260902194037 36 250 14.5 17.7 0.00 0.00 0.00 9 1016.5
20260902193533 36 266 8.0 20.9 0.00 0.00 0.00 9 1016.3
20260902193032 37 233 17.7 30.6 0.00 0.00 0.00 9 1016.7
20260902192531 36 326 6.4 16.1 0.00 0.00 0.00 9 1016.8
20260902192030 37 321 20.9 20.9 0.00 0.00 0.00 9 1016.7
20260902191526 37 264 9.7 22.5 0.00 0.00 0.00 9 1016.9
20260902191020 36 229 6.4 19.3 0.00 0.00 0.00 9 1016.8
20260902190516 36 262 14.5 22.5 0.00 0.00 0.00 9 1016.8
20260902190012 36 267 6.4 11.3 0.00 0.00 0.00 10 1017.1
20260902185508 36 288 20.9 29.0 0.00 0.00 0.00 9 1017.0
20260902185003 35 244 6.4 25.7 0.00 0.00 0.00 10 1017.2
20260902184458 36 257 11.3 17.7 0.00 0.00 0.00 9 1017.2
20260902183953 36 285 9.7 19.3 0.00 0.00 0.00 10 1017.2
20260902183449 35 311 16.1 24.1 0.00 0.00 0.00 10 1017.2
20260902182945 36 252 8.0 16.1 0.00 0.00 0.00 9 1017.3
20260902182441 36 281 6.4 14.5 0.00 0.00 0.00 9 1017.4
20260902181937 36 228 6.4 14.5 0.00 0.00 0.00 9 1017.4
20260902181432 36 242 8.0 14.5 0.00 0.00 0.00 10 1017.4
20260902180926 36 242 8.0 8.0 0.00 0.00 0.00 10 1017.5
20260902180422 36 276 4.8 4.8 0.00 0.00 0.00 10 1017.6
20260902175917 36 275 4.8 8.0 0.00 0.00 0.00 10 1017.5
20260902175412 35 163 0.0 3.2 0.00 0.00 0.00 10 1017.6
20260902174908 35 102 3.2 9.7 0.00 0.00 0.00 10 1017.6
20260902174405 35 235 0.0 3.2 0.00 0.00 0.00 10 1017.9
20260902173900 35 32 0.0 3.2 0.00 0.00 0.00 11 1017.6
20260902173359 35 107 6.4 6.4 0.00 0.00 0.00 11 1017.8
20260902172855 34 119 0.0 4.8 0.00 0.00 0.00 11 1017.7
20260902172354 35 75 0.0 6.4 0.00 0.00 0.00 11 1017.8
20260902171849 34 75 4.8 4.8 0.00 0.00 0.00 12 1017.7
20260902171344 33 83 4.8 11.3 0.00 0.00 0.00 12 1017.6
20260902170841 34 76 4.8 4.8 0.00 0.00 0.00 12 1017.8
20260902170336 34 100 6.4 8.0 0.00 0.00 0.00 12 1017.6
20260902165831 33 81 3.2 4.8 0.00 0.00 0.00 12 1017.6
20260902165330 33 16 3.2 4.8 0.00 0.00 0.00 13 1017.5
20260902164825 33 130 0.0 4.8 0.00 0.00 0.00 13 1017.7
20260902164321 33 127 1.6 4.8 0.00 0.00 0.00 13 1017.6
20260902163820 33 105 0.0 3.2 0.00 0.00 0.00 13 1018.0
20260902163320 33 148 3.2 4.8 0.00 0.00 0.00 13 1017.7
20260902162818 33 110 1.6 4.8 0.00 0.00 0.00 14 1017.7
20260902162313 32 119 1.6 4.8 0.00 0.00 0.00 14 1017.7
20260902161808 32 68 1.6 3.2 0.00 0.00 0.00 14 1017.7
20260902161304 32 225 0.0 3.2 0.00 0.00 0.00 14 1017.8
20260902160800 32 71 0.0 3.2 0.00 0.00 0.00 14 1017.8
20260902160255 32 131 0.0 3.2 0.00 0.00 0.00 15 1017.9
20260902155753 32 117 0.0 1.6 0.00 0.00 0.00 14 1017.6
20260902155252 31 350 1.6 3.2 0.00 0.00 0.00 15 1017.9
20260902154747 32 34 3.2 3.2 0.00 0.00 0.00 15 1017.7
20260902154243 32 41 0.0 3.2 0.00 0.00 0.00 15 1017.6
20260902153735 32 59 3.2 3.2 0.00 0.00 0.00 15 1017.5
20260902153236 31 232 0.0 3.2 0.00 0.00 0.00 15 1017.5
20260902152732 30 265 0.0 3.2 0.00 0.00 0.00 16 1017.7
20260902152227 30 296 0.0 1.6 0.00 0.00 0.00 16 1017.5
20260902151723 30 282 0.0 3.2 0.00 0.00 0.00 16 1017.5
20260902151223 31 356 3.2 3.2 0.00 0.00 0.00 16 1017.6
20260902150723 31 79 0.0 3.2 0.00 0.00 0.00 15 1017.5
20260902150219 31 84 1.6 3.2 0.00 0.00 0.00 16 1017.6
20260902145718 30 37 1.6 3.2 0.00 0.00 0.00 18 1017.6
20260902145213 30 15 0.0 1.6 0.00 0.00 0.00 19 1017.6
20260902144709 28 6 0.0 3.2 0.00 0.00 0.00 20 1017.7
20260902144205 28 343 3.2 3.2 0.00 0.00 0.00 19 1017.5
20260902143700 28 1 1.6 3.2 0.00 0.00 0.00 22 1017.5
20260902143155 28 318 0.0 1.6 0.00 0.00 0.00 19 1017.3
20260902142651 27 124 0.0 1.6 0.00 0.00 0.00 20 1017.3
20260902142147 26 201 0.0 3.2 0.00 0.00 0.00 20 1017.5
20260902141646 25 274 0.0 3.2 0.00 0.00 0.00 21 1017.6
20260902141142 24 268 1.6 3.2 0.00 0.00 0.00 22 1017.4
20260902140637 23 226 1.6 3.2 0.00 0.00 0.00 23 1017.3
20260902140132 23 168 1.6 3.2 0.00 0.00 0.00 23 1017.2
20260902135631 22 249 3.2 3.2 0.00 0.00 0.00 23 1017.3
20260902135126 22 190 1.6 3.2 0.00 0.00 0.00 24 1016.9
20260902134622 22 274 3.2 4.8 0.00 0.00 0.00 24 1017.2
20260902134121 22 142 1.6 3.2 0.00 0.00 0.00 24 1016.9
20260902133621 22 322 0.0 3.2 0.00 0.00 0.00 24 1017.0
20260902133116 22 220 0.0 3.2 0.00 0.00 0.00 24 1016.9
20260902132612 22 141 0.0 3.2 0.00 0.00 0.00 24 1017.0
20260902132107 21 251 0.0 3.2 0.00 0.00 0.00 24 1016.9
20260902131603 22 128 0.0 3.2 0.00 0.00 0.00 23 1016.9
20260902131058 22 228 0.0 3.2 0.00 0.00 0.00 24 1016.8
20260902130554 21 183 1.6 3.2 0.00 0.00 0.00 25 1016.7
20260902130049 22 234 3.2 3.2 0.00 0.00 0.00 24 1016.8
20260902125544 22 174 0.0 3.2 0.00 0.00 0.00 24 1016.9
20260902125040 22 212 0.0 1.6 0.00 0.00 0.00 24 1016.8
20260902124536 22 225 1.6 3.2 0.00 0.00 0.00 23 1016.7
20260902124031 22 201 0.0 3.2 0.00 0.00 0.00 23 1016.6
20260902123526 22 238 1.6 1.6 0.00 0.00 0.00 23 1016.7
20260902123021 21 236 3.2 3.2 0.00 0.00 0.00 24 1016.8
20260902122520 22 231 3.2 6.4 0.00 0.00 0.00 23 1016.6
20260902122015 22 237 6.4 6.4 0.00 0.00 0.00 23 1016.8
20260902121510 22 225 3.2 4.8 0.00 0.00 0.00 23 1016.6
20260902121005 22 108 0.0 3.2 0.00 0.00 0.00 23 1016.6
20260902120502 22 235 4.8 4.8 0.00 0.00 0.00 22 1016.8
20260902120002 22 200 4.8 6.4 0.00 0.00 0.00 22 1016.6
20260902115457 23 218 4.8 6.4 0.00 0.00 0.00 22 1016.6
20260902114954 23 222 1.6 3.2 0.00 0.00 0.00 22 1016.3
20260902114449 23 201 0.0 3.2 0.00 0.00 0.00 22 1016.5
20260902113944 23 249 1.6 6.4 0.00 0.00 0.00 21 1016.5
20260902113440 23 219 3.2 6.4 0.00 0.00 0.00 21 1016.5
20260902112939 22 240 6.4 6.4 0.00 0.00 0.00 22 1016.6
20260902112436 23 191 1.6 3.2 0.00 0.00 0.00 21 1016.3
20260902111931 23 253 0.0 3.2 0.00 0.00 0.00 21 1016.6
20260902111427 23 219 0.0 3.2 0.00 0.00 0.00 21 1016.8
20260902110923 23 234 1.6 4.8 0.00 0.00 0.00 21 1016.7
20260902110420 23 242 0.0 4.8 0.00 0.00 0.00 21 1016.7
20260902105919 23 241 4.8 6.4 0.00 0.00 0.00 21 1016.5
20260902105414 23 205 3.2 3.2 0.00 0.00 0.00 21 1016.5
20260902104910 23 283 0.0 3.2 0.00 0.00 0.00 21 1016.7
20260902104406 23 77 0.0 3.2 0.00 0.00 0.00 20 1016.9
20260902103905 22 159 3.2 3.2 0.00 0.00 0.00 21 1016.6
20260902103400 23 180 0.0 3.2 0.00 0.00 0.00 21 1016.6
20260902102854 23 117 0.0 3.2 0.00 0.00 0.00 20 1016.7
20260902102353 22 226 4.8 6.4 0.00 0.00 0.00 20 1016.8
20260902101848 22 327 0.0 3.2 0.00 0.00 0.00 21 1016.8
20260902101343 23 240 3.2 6.4 0.00 0.00 0.00 20 1017.0
20260902100842 23 245 3.2 3.2 0.00 0.00 0.00 19 1016.9
20260902100337 23 10 1.6 1.6 0.00 0.00 0.00 20 1017.0
20260902095832 22 282 3.2 4.8 0.00 0.00 0.00 20 1017.0
20260902095331 22 267 1.6 3.2 0.00 0.00 0.00 20 1017.0
20260902094831 23 33 0.0 3.2 0.00 0.00 0.00 20 1017.0
20260902094328 23 117 0.0 1.6 0.00 0.00 0.00 19 1016.9
20260902093827 23 207 0.0 4.8 0.00 0.00 0.00 20 1017.0
20260902093322 22 218 0.0 3.2 0.00 0.00 0.00 20 1017.1
20260902092821 23 224 0.0 3.2 0.00 0.00 0.00 20 1016.9
20260902092317 23 141 0.0 3.2 0.00 0.00 0.00 20 1016.8
20260902091811 23 244 1.6 4.8 0.00 0.00 0.00 20 1017.1
20260902091307 23 262 3.2 4.8 0.00 0.00 0.00 19 1017.0
20260902090804 24 249 1.6 3.2 0.00 0.00 0.00 18 1017.1
20260902090302 24 337 4.8 4.8 0.00 0.00 0.00 18 1017.3
20260902085802 25 245 1.6 8.0 0.00 0.00 0.00 18 1017.3
20260902085257 24 251 4.8 9.7 0.00 0.00 0.00 18 1017.3
20260902084753 23 219 3.2 4.8 0.00 0.00 0.00 19 1017.3
20260902084248 23 292 3.2 4.8 0.00 0.00 0.00 19 1017.5
20260902083744 23 332 3.2 4.8 0.00 0.00 0.00 19 1017.3
20260902083238 25 249 1.6 6.4 0.00 0.00 0.00 18 1017.5
20260902082733 25 62 3.2 4.8 0.00 0.00 0.00 19 1017.6
20260902082230 26 299 8.0 14.5 0.00 0.00 0.00 16 1017.4
20260902081726 27 337 3.2 12.9 0.00 0.00 0.00 17 1017.5
20260902081221 26 331 8.0 8.0 0.00 0.00 0.00 16 1017.5
20260902080715 27 339 4.8 11.3 0.00 0.00 0.00 16 1017.2
20260902080207 26 12 9.7 14.5 0.00 0.00 0.00 17 1017.2
20260902075706 26 20 3.2 14.5 0.00 0.00 0.00 17 1017.4
20260902075202 26 350 6.4 9.7 0.00 0.00 0.00 17 1017.3
20260902074657 26 18 9.7 12.9 0.00 0.00 0.00 17 1017.3
20260902074152 26 16 4.8 9.7 0.00 0.00 0.00 17 1017.3
20260902073647 26 358 4.8 9.7 0.00 0.00 0.00 17 1017.4
20260902073144 26 359 4.8 9.7 0.00 0.00 0.00 17 1017.3
20260902072639 26 299 0.0 8.0 0.00 0.00 0.00 18 1017.2
20260902072135 26 355 3.2 4.8 0.00 0.00 0.00 18 1017.4
20260902071630 25 31 1.6 8.0 0.00 0.00 0.00 19 1017.3
20260902071126 24 86 0.0 3.2 0.00 0.00 0.00 22 1017.4
20260902070621 24 274 3.2 3.2 0.00 0.00 0.00 22 1017.3
20260902070116 25 18 3.2 3.2 0.00 0.00 0.00 21 1017.1
20260902065615 25 229 0.0 1.6 0.00 0.00 0.00 21 1017.2
20260902065111 25 282 0.0 4.8 0.00 0.00 0.00 21 1017.4
20260902064607 25 165 0.0 3.2 0.00 0.00 0.00 21 1017.3
20260902064101 25 299 3.2 8.0 0.00 0.00 0.00 21 1017.1
20260902063556 26 224 0.0 3.2 0.00 0.00 0.00 20 1017.1
20260902063051 25 312 3.2 4.8 0.00 0.00 0.00 20 1017.1
20260902062549 25 357 1.6 4.8 0.00 0.00 0.00 22 1017.1
20260902062046 25 68 0.0 3.2 0.00 0.00 0.00 22 1017.2
20260902061545 25 234 3.2 4.8 0.00 0.00 0.00 21 1017.0
20260902061041 25 297 3.2 3.2 0.00 0.00 0.00 21 1017.1
20260902060537 25 57 1.6 3.2 0.00 0.00 0.00 22 1016.9
20260902060034 25 355 1.6 3.2 0.00 0.00 0.00 22 1016.9
20260902055529 25 100 0.0 1.6 0.00 0.00 0.00 21 1017.0
20260902055024 25 128 0.0 3.2 0.00 0.00 0.00 21 1017.0
20260902054519 25 147 0.0 3.2 0.00 0.00 0.00 22 1016.8
20260902054015 25 158 0.0 1.6 0.00 0.00 0.00 22 1016.9
20260902053510 26 224 0.0 3.2 0.00 0.00 0.00 22 1016.9
20260902053010 27 263 0.0 3.2 0.00 0.00 0.00 20 1016.8
20260902052504 27 316 6.4 9.7 0.00 0.00 0.00 19 1017.0
20260902052000 27 68 0.0 3.2 0.00 0.00 0.00 19 1016.9
20260902051500 27 17 3.2 8.0 0.00 0.00 0.00 19 1017.0
20260902050958 27 357 3.2 8.0 0.00 0.00 0.00 19 1017.1
20260902050453 27 329 1.6 3.2 0.00 0.00 0.00 20 1017.1
20260902045948 27 64 0.0 6.4 0.00 0.00 0.00 20 1016.9
20260902045444 28 52 3.2 3.2 0.00 0.00 0.00 21 1017.0
20260902044940 27 77 4.8 4.8 0.00 0.00 0.00 22 1017.0
20260902044435 27 101 1.6 4.8 0.00 0.00 0.00 21 1017.0
20260902043930 27 74 0.0 3.2 0.00 0.00 0.00 21 1016.8
20260902043425 28 236 3.2 6.4 0.00 0.00 0.00 20 1016.8
20260902042920 28 239 3.2 4.8 0.00 0.00 0.00 21 1016.6
20260902042419 28 130 1.6 3.2 0.00 0.00 0.00 21 1016.5
20260902041915 28 123 3.2 3.2 0.00 0.00 0.00 20 1016.6
20260902041409 29 109 3.2 4.8 0.00 0.00 0.00 18 1016.6
20260902040911 29 197 0.0 3.2 0.00 0.00 0.00 18 1016.2
20260902040403 30 347 3.2 6.4 0.00 0.00 0.00 18 1016.2
20260902035902 30 353 3.2 9.7 0.00 0.00 0.00 18 1016.0
20260902035352 30 10 1.6 4.8 0.00 0.00 0.00 19 1015.9
20260902034851 30 111 0.0 3.2 0.00 0.00 0.00 19 1015.9
20260902034347 30 317 6.4 8.0 0.00 0.00 0.00 18 1015.9
20260902033845 30 322 0.0 3.2 0.00 0.00 0.00 19 1015.8
20260902033340 30 0 0.0 3.2 0.00 0.00 0.00 20 1015.6
20260902032839 30 30 3.2 3.2 0.00 0.00 0.00 19 1015.7
20260902032338 30 290 0.0 6.4 0.00 0.00 0.00 19 1015.5
20260902031833 31 250 6.4 11.3 0.00 0.00 0.00 19 1015.4
20260902031329 31 280 1.6 11.3 0.00 0.00 0.00 19 1015.2
20260902030819 31 333 8.0 17.7 0.00 0.00 0.00 19 1015.2
20260902030313 31 298 9.7 9.7 0.00 0.00 0.00 19 1015.1
20260902025813 31 264 9.7 16.1 0.00 0.00 0.00 19 1015.3
20260902025309 31 303 9.7 17.7 0.00 0.00 0.00 19 1015.1
20260902024803 31 339 6.4 16.1 0.00 0.00 0.00 18 1014.9
20260902024258 31 328 11.3 17.7 0.00 0.00 0.00 18 1014.9
20260902023754 31 303 6.4 27.4 0.00 0.00 0.00 19 1014.7
20260902023249 31 271 6.4 25.7 0.00 0.00 0.00 18 1014.6
20260902022748 32 279 11.3 27.4 0.00 0.00 0.00 19 1014.5
20260902022244 31 327 11.3 19.3 0.00 0.00 0.00 20 1014.6
20260902021739 32 244 16.1 24.1 0.00 0.00 0.00 22 1014.5
20260902021233 32 293 11.3 19.3 0.00 0.00 0.00 22 1014.3
20260902020730 32 244 24.1 27.4 0.00 0.00 0.00 22 1014.3
20260902020225 32 229 12.9 16.1 0.00 0.00 0.00 22 1014.3
20260902015720 32 312 6.4 14.5 0.00 0.00 0.00 22 1014.3
20260902015217 32 291 9.7 17.7 0.00 0.00 0.00 21 1014.4
20260902014712 33 262 12.9 22.5 0.00 0.00 0.00 19 1013.9
20260902014209 33 239 19.3 27.4 0.00 0.00 0.00 20 1014.0
20260902013707 33 296 12.9 30.6 0.00 0.00 0.00 20 1014.0
20260902013203 33 284 9.7 24.1 0.00 0.00 0.00 20 1013.9
20260902012658 33 230 1.6 9.7 0.00 0.00 0.00 19 1013.9
20260902012153 33 271 8.0 27.4 0.00 0.00 0.00 18 1013.8
20260902011648 33 280 9.7 27.4 0.00 0.00 0.00 19 1013.7
20260902011143 33 246 8.0 19.3 0.00 0.00 0.00 21 1013.9
20260902010642 35 279 11.3 27.4 0.00 0.00 0.00 21 1013.8
20260902010139 35 263 8.0 20.9 0.00 0.00 0.00 20 1013.7
20260902005636 35 3 4.8 11.3 0.00 0.00 0.00 21 1014.0
20260902005132 36 312 6.4 27.4 0.00 0.00 0.00 18 1013.9
20260902004632 35 241 8.0 19.3 0.00 0.00 0.00 20 1014.1
20260902004127 36 243 11.3 12.9 0.00 0.00 0.00 17 1014.1
20260902003622 36 286 8.0 16.1 0.00 0.00 0.00 19 1013.8
20260902003118 36 297 6.4 16.1 0.00 0.00 0.00 19 1014.1
20260902002613 36 267 9.7 16.1 0.00 0.00 0.00 18 1014.0
20260902002108 36 251 11.3 16.1 0.00 0.00 0.00 19 1014.1
20260902001602 36 241 16.1 25.7 0.00 0.00 0.00 18 1014.1
20260902001052 37 265 6.4 17.7 0.00 0.00 0.00 19 1013.9
20260902000546 37 312 8.0 16.1 0.00 0.00 0.00 18 1014.2
20260902000042 36 273 8.0 19.3 0.00 0.00 0.00 18 1014.0
20260901235541 37 262 8.0 20.9 0.00 0.00 0.00 19 1014.2
20260901235038 37 272 8.0 14.5 0.00 0.00 0.00 19 1014.0
20260901234536 37 247 14.5 25.7 0.00 0.00 0.00 19 1014.0
20260901234032 37 294 4.8 17.7 0.00 0.00 0.00 19 1014.2
20260901233531 37 234 22.5 27.4 0.00 0.00 0.00 19 1014.1
20260901233028 37 319 6.4 17.7 0.00 0.00 0.00 19 1014.1
20260901232523 37 233 4.8 17.7 0.00 0.00 0.00 19 1014.2
20260901232018 38 61 6.4 14.5 0.00 0.00 0.00 19 1014.3
20260901231514 37 232 16.1 30.6 0.00 0.00 0.00 18 1014.2
20260901231011 37 291 9.7 19.3 0.00 0.00 0.00 18 1014.2
20260901230510 38 261 6.4 16.1 0.00 0.00 0.00 17 1014.3
20260901230006 37 227 14.5 20.9 0.00 0.00 0.00 17 1014.3
20260901225500 37 288 4.8 19.3 0.00 0.00 0.00 17 1014.4
20260901224954 37 278 12.9 24.1 0.00 0.00 0.00 17 1014.4
20260901224450 38 251 6.4 14.5 0.00 0.00 0.00 16 1014.4
20260901223946 38 224 6.4 12.9 0.00 0.00 0.00 17 1014.5
20260901223442 38 257 12.9 19.3 0.00 0.00 0.00 17 1014.5
20260901222937 38 250 17.7 25.7 0.00 0.00 0.00 16 1014.5
20260901222433 38 249 14.5 17.7 0.00 0.00 0.00 16 1014.5
20260901221929 39 264 8.0 22.5 0.00 0.00 0.00 16 1014.5
20260901221425 38 233 14.5 22.5 0.00 0.00 0.00 16 1014.5
20260901220920 38 256 17.7 24.1 0.00 0.00 0.00 16 1014.5
20260901220419 38 244 9.7 17.7 0.00 0.00 0.00 16 1014.5